TimeEDT,TemperatureF,Dew PointF,Humidity,Sea Level PressureIn,VisibilityMPH,Wind Direction,Wind SpeedMPH,Gust SpeedMPH,PrecipitationIn,Events,Conditions,WindDirDegrees,DateUTC
12:53 AM,36.0,26.1,67,30.19,10.0,East,16.1,24.2,N/A,,Overcast,100,2013-03-19 04:53:00
1:53 AM,36.0,26.1,67,30.12,10.0,East,23.0,32.2,N/A,,Overcast,90,2013-03-19 05:53:00
2:53 AM,35.1,28.9,78,30.05,8.0,East,24.2,34.5,0.02,Rain,Rain,90,2013-03-19 06:53:00
3:10 AM,35.6,30.2,81,30.03,6.0,East,25.3,32.2,0.02,Rain,Rain,100,2013-03-19 07:10:00
3:53 AM,35.1,32.0,89,30.02,4.0,East,24.2,38.0,0.05,Rain,Rain,100,2013-03-19 07:53:00
4:53 AM,37.0,33.1,86,29.97,5.0,East,25.3,34.5,0.06,Rain,Light Rain,100,2013-03-19 08:53:00
5:53 AM,37.0,34.0,89,29.96,4.0,East,20.7,33.4,0.13,Rain,Rain,90,2013-03-19 09:53:00
6:41 AM,37.4,35.6,93,29.94,4.0,East,25.3,35.7,0.06,Rain,Light Rain,90,2013-03-19 10:41:00
6:53 AM,37.9,36.0,93,29.93,4.0,East,26.5,34.5,0.08,Rain,Rain,90,2013-03-19 10:53:00
7:53 AM,39.9,37.9,93,29.91,4.0,East,21.9,28.8,0.07,Rain,Light Rain,90,2013-03-19 11:53:00
8:53 AM,39.9,37.9,93,29.86,2.5,East,19.6,28.8,0.09,Rain,Rain,80,2013-03-19 12:53:00
9:53 AM,41.0,39.0,93,29.81,2.5,East,26.5,35.7,0.08,Rain,Light Rain,90,2013-03-19 13:53:00
10:00 AM,42.8,39.2,87,29.81,3.0,East,20.7,35.7,0.01,Rain,Rain,80,2013-03-19 14:00:00
10:13 AM,42.8,39.2,87,29.79,2.5,East,24.2,33.4,0.03,Rain,Rain,90,2013-03-19 14:13:00
10:53 AM,43.0,41.0,93,29.76,2.0,East,21.9,36.8,0.09,Rain,Rain,90,2013-03-19 14:53:00
11:12 AM,42.8,41.0,93,29.75,3.0,East,18.4,28.8,0.01,Rain,Light Rain,90,2013-03-19 15:12:00
11:53 AM,43.0,42.1,97,29.72,3.0,East,19.6,34.5,0.04,Rain,Light Rain,90,2013-03-19 15:53:00
12:53 PM,44.1,42.1,93,29.66,3.0,East,20.7,32.2,0.01,Rain,Light Rain,90,2013-03-19 16:53:00
1:53 PM,45.0,44.1,97,29.59,3.0,ESE,24.2,32.2,0.01,Rain,Light Rain,110,2013-03-19 17:53:00
2:00 PM,44.6,44.6,100,29.59,2.5,ESE,20.7,32.2,0.00,Rain,Rain,110,2013-03-19 18:00:00
2:11 PM,46.4,44.6,93,29.58,1.8,ESE,20.7,32.2,0.02,Rain,Light Rain,110,2013-03-19 18:11:00
2:28 PM,44.6,44.6,100,29.58,2.0,ESE,17.3,26.5,0.03,Rain,Light Rain,110,2013-03-19 18:28:00
2:38 PM,44.6,44.6,100,29.57,1.8,ESE,17.3,-,0.03,Rain,Light Rain,110,2013-03-19 18:38:00
2:53 PM,45.0,44.1,97,29.56,1.2,ESE,16.1,26.5,0.03,Rain,Light Rain,110,2013-03-19 18:53:00
3:28 PM,44.6,44.6,100,29.57,0.5,SSE,10.4,-,0.00,Fog,Fog,150,2013-03-19 19:28:00
3:53 PM,46.9,46.9,100,29.55,0.5,South,10.4,-,0.00,Fog,Fog,190,2013-03-19 19:53:00
4:23 PM,44.6,44.6,100,29.54,0.2,SW,9.2,-,N/A,Fog,Fog,220,2013-03-19 20:23:00
4:53 PM,45.0,44.1,97,29.53,0.2,SSW,8.1,-,N/A,Fog,Fog,210,2013-03-19 20:53:00
5:21 PM,42.8,42.8,100,29.51,0.5,SSW,9.2,-,N/A,Fog,Fog,210,2013-03-19 21:21:00
5:53 PM,43.0,43.0,100,29.50,0.2,SSW,11.5,-,N/A,Fog,Fog,210,2013-03-19 21:53:00
6:53 PM,42.1,41.0,96,29.52,0.2,SW,20.7,-,N/A,Fog,Fog,230,2013-03-19 22:53:00
7:15 PM,41.0,39.2,93,29.53,0.5,West,19.6,28.8,N/A,Fog,Fog,270,2013-03-19 23:15:00
7:33 PM,41.0,39.2,93,29.53,1.2,West,18.4,-,N/A,,Overcast,270,2013-03-19 23:33:00
7:42 PM,39.2,39.2,100,29.54,3.0,West,18.4,25.3,N/A,,Overcast,270,2013-03-19 23:42:00
7:53 PM,39.9,39.9,100,29.54,6.0,West,16.1,25.3,N/A,,Overcast,270,2013-03-19 23:53:00
8:53 PM,37.9,37.9,100,29.57,10.0,West,23.0,29.9,N/A,,Overcast,270,2013-03-20 00:53:00
9:37 PM,37.4,35.6,93,29.60,10.0,West,27.6,35.7,N/A,,Overcast,270,2013-03-20 01:37:00
9:53 PM,37.0,36.0,96,29.60,10.0,West,24.2,36.8,N/A,,Overcast,280,2013-03-20 01:53:00
10:28 PM,37.4,35.6,93,29.60,10.0,West,21.9,36.8,N/A,,Overcast,270,2013-03-20 02:28:00
10:53 PM,37.0,34.0,89,29.61,10.0,WNW,24.2,32.2,N/A,,Overcast,290,2013-03-20 02:53:00
11:53 PM,36.0,32.0,86,29.65,10.0,WNW,17.3,29.9,N/A,,Overcast,290,2013-03-20 03:53:00